Location: Bailleul
(50.3375°N, 2.8513°E)
Time: 13:12:20
(UTC+00:00)

Cosmos 1340 - Pass Details

Date: 16 June 2021
Orbit: 498 x 504 km, 81.2° (Epoch: 04 August)

Event Time Altitude Azimuth Distance (km) Brightness Sun altitude
Exits shadow 22:26:36 12° 213° (SSW) 1,613 4.8 -14.0°
Maximum altitude 22:29:59 46° 287° (WNW) 686 3.5 -14.2°
Drops below altitude 10° 22:33:39 10° 2° (N) 1,729 6.5 -14.4°
Sets 22:35:52 0° 8° (N) 2,620 7.5 -14.5°
